De Soto, IL

9:04 PM CDT on September 26, 2016 (GMT -0500)
Southern Illinois

Weather History for KMDH - December, 2011

Change the Weather History Date:

Tuesday, December 27, 2011

  Actual Average Record
Temperature  
Mean Temperature 39 °F -  
Max Temperature 46 °F 38 °F 72 °F (2008)
Min Temperature 32 °F 23 °F 0 °F (1925)
Degree Days  
Heating Degree Days 26    
Moisture  
Dew Point 33 °F    
Average Humidity 89    
Maximum Humidity 100    
Minimum Humidity 65    
Precipitation  
Precipitation 0.27 in - - ()
Sea Level Pressure  
Sea Level Pressure 29.81 in    
Wind  
Wind Speed 8 mph (NW)    
Max Wind Speed 20 mph    
Max Gust Speed 29 mph    
Visibility 6 miles    
Events Rain , Snow    
Averages and records for this station are not official NWS values.
T = Trace of Precipitation, MM = Missing Value Source: NWS Daily Summary

Daily Weather History Graph

Daily Weather History Graph

Search for Another Location

Airport or City:

Trip Planner

Search our weather history database for the weather conditions in past years. The results will help you decide how hot, cold, wet, or windy it might be!

Date:

Astronomy

Dec. 27, 2011 Rise Set
Actual Time 7:11 AM CST 4:44 PM CST
Civil Twilight 6:41 AM CST 5:14 PM CST
Nautical Twilight 6:08 AM CST 5:47 PM CST
Astronomical Twilight 5:36 AM CST 6:19 PM CST
Moon 9:09 AM CST 8:14 PM CST
Length of Visible Light 10h 32m
Length of Day
9h 33m
Waxing Crescent, 11% of the Moon is Illuminated
Dec 27
Waxing Crescent
Jan 1
First Quarter
Jan 9
Full
Jan 16
Last Quarter
Jan 23
New

Hourly Weather History & Observations

Time (CST) Temp. Windchill Dew Point Humidity Pressure Visibility Wind Dir Wind Speed Gust Speed Precip Events Conditions
12:37 AM 35.6 °F 28.6 °F 35.6 °F 100% 29.79 in 7.0 mi NNE 9.2 mph - 0.01 in Rain Light Rain
12:45 AM 35.6 °F 29.2 °F 35.6 °F 100% 29.80 in 7.0 mi NE 8.1 mph - 0.01 in Rain Light Rain
12:52 AM 36.0 °F 28.0 °F 35.1 °F 97% 29.77 in 7.0 mi NNE 11.5 mph - 0.01 in Rain Light Rain
1:04 AM 37.4 °F 34.9 °F 35.6 °F 93% 29.79 in 6.0 mi NE 3.5 mph - 0.01 in Rain Light Rain
1:52 AM 36.0 °F 33.3 °F 35.1 °F 97% 29.82 in 5.0 mi West 3.5 mph - 0.04 in Rain Light Rain
2:22 AM 35.6 °F 30.7 °F 35.6 °F 100% 29.80 in 2.5 mi NW 5.8 mph - 0.01 in Rain Light Rain
2:33 AM 35.6 °F 29.9 °F 35.6 °F 100% 29.80 in 2.5 mi NW 6.9 mph - 0.01 in   Overcast
2:52 AM 36.0 °F 29.6 °F 35.1 °F 97% 29.79 in 2.5 mi NNW 8.1 mph - 0.01 in   Overcast
3:52 AM 35.1 °F 29.3 °F 34.0 °F 96% 29.76 in 4.0 mi NW 6.9 mph - 0.01 in Rain Light Rain
4:05 AM 33.8 °F 28.6 °F 33.8 °F 100% 29.75 in 2.0 mi NNW 5.8 mph - 0.04 in Rain Heavy Rain
4:42 AM 33.8 °F 27.0 °F 32.0 °F 93% 29.73 in 1.5 mi NNW 8.1 mph - 0.09 in Snow Light Snow
4:52 AM 32.0 °F 25.6 °F 32.0 °F 100% 29.74 in 1.0 mi NNW 6.9 mph - 0.11 in Snow Light Snow
4:59 AM 32.0 °F 26.4 °F 32.0 °F 100% 29.73 in 0.8 mi NNW 5.8 mph - 0.02 in Snow Light Snow
5:11 AM 32.0 °F 26.4 °F 32.0 °F 100% 29.72 in 1.0 mi NW 5.8 mph - 0.06 in Snow Light Snow
5:20 AM 32.0 °F 25.6 °F 32.0 °F 100% 29.72 in 0.8 mi NNW 6.9 mph - 0.09 in Snow Light Snow
5:27 AM 32.0 °F 25.6 °F 32.0 °F 100% 29.72 in 1.0 mi NW 6.9 mph - 0.10 in Snow Light Snow
5:45 AM 33.8 °F 27.0 °F 32.0 °F 93% 29.72 in 2.0 mi NW 8.1 mph - 0.12 in Snow Light Snow
6:08 AM 33.8 °F 27.7 °F 32.0 °F 93% 29.73 in 2.5 mi NW 6.9 mph - 0.01 in Snow Light Snow
6:37 AM 33.8 °F 27.7 °F 32.0 °F 93% 29.74 in 2.5 mi WNW 6.9 mph - 0.02 in Snow Light Snow
6:52 AM 33.1 °F 28.7 °F 32.0 °F 96% 29.75 in 1.2 mi WNW 4.6 mph - 0.04 in Snow Light Snow
7:48 AM 33.8 °F 28.6 °F 32.0 °F 93% 29.75 in 1.5 mi West 5.8 mph - 0.05 in Snow Light Snow
7:52 AM 33.1 °F 28.7 °F 32.0 °F 96% 29.76 in 2.0 mi West 4.6 mph - 0.05 in Snow Light Snow
8:03 AM 33.8 °F 28.6 °F 32.0 °F 93% 29.75 in 5.0 mi West 5.8 mph - 0.00 in Snow Light Snow
8:52 AM 33.1 °F 27.7 °F 32.0 °F 96% 29.78 in 4.0 mi West 5.8 mph - 0.00 in   Overcast
9:52 AM 35.1 °F 27.9 °F 33.1 °F 92% 29.81 in 10.0 mi West 9.2 mph - N/A   Overcast
10:18 AM 35.6 °F 28.0 °F 33.8 °F 93% 29.79 in 10.0 mi West 10.4 mph - N/A   Overcast
10:52 AM 37.9 °F 32.1 °F 34.0 °F 86% 29.80 in 10.0 mi West 8.1 mph - N/A   Scattered Clouds
11:52 AM 43.0 °F 36.0 °F 36.0 °F 76% 29.78 in 10.0 mi WNW 13.8 mph 20.7 mph N/A   Clear
12:22 PM 44.6 °F 38.8 °F 35.6 °F 71% 29.78 in 10.0 mi WNW 11.5 mph 24.2 mph N/A   Mostly Cloudy
12:52 PM 46.0 °F 39.6 °F 37.0 °F 71% 29.79 in 10.0 mi WNW 15.0 mph 24.2 mph N/A   Mostly Cloudy
1:22 PM 46.4 °F 39.0 °F 35.6 °F 66% 29.79 in 10.0 mi WNW 19.6 mph 28.8 mph N/A   Mostly Cloudy
1:52 PM 46.9 °F - 36.0 °F 66% 29.80 in 10.0 mi WNW 12.7 mph 26.5 mph N/A   Scattered Clouds
2:52 PM 45.0 °F 38.5 °F 34.0 °F 65% 29.85 in 10.0 mi WNW 13.8 mph 24.2 mph N/A   Overcast
4:52 PM 43.0 °F 35.7 °F 32.0 °F 65% 29.96 in 10.0 mi WNW 15.0 mph 24.2 mph N/A   Overcast
5:52 PM 42.1 °F 37.1 °F 32.0 °F 67% 29.99 in 10.0 mi NW 8.1 mph - N/A   Overcast
9:52 PM 37.0 °F 32.4 °F 30.9 °F 79% 30.08 in 10.0 mi NNE 5.8 mph - N/A   Mostly Cloudy
10:52 PM 34.0 °F 29.8 °F 28.0 °F 79% 30.09 in 10.0 mi North 4.6 mph - N/A   Clear
11:52 PM 33.1 °F 28.7 °F 28.0 °F 82% 30.11 in 10.0 mi WNW 4.6 mph - N/A   Partly Cloudy